Tracking 33747 objects as of 12-Apr-2026
HD Live streaming from Space Station
objects crossing your sky now

STARLINK-36371

Track STARLINK-36371 now!
10-day predictions
STARLINK-36371 is classified as:


NORAD ID: 67938
Int'l Code: 2026-037G
Perigee: 489.7 km
Apogee: 490.7 km
Inclination: 43.0 °
Period: 94.3 minutes
Semi major axis: 6861 km
RCS: Unknown
Launch date: February 24, 2026
Source: United States (US)
Launch site: AIR FORCE EASTERN TEST RANGE (AFETR)
Your satellite tracking list
Your tracking list is empty




NASA's NSSDC Master Catalog

Two Line Element Set (TLE):
1 67938U 26037G   26101.73933780  .00020890  00000-0  76654-3 0  9991
2 67938  42.9977   4.2206 0000670 271.6282  88.4493 15.27578212  8394
Source of the keplerian elements: AFSPC